Location: Benalto
(52.3088°N, 114.2787°W)
Time: 11:41:13
(UTC+00:00)

N. Korean satellite - Pass Details

Date: 06 December 2021
Orbit: 447 x 491 km, 97.3° (Epoch: 21 January)

Event Time Altitude Azimuth Distance (km) Brightness Sun altitude
Rises 13:14:48 0° 11° (N) 2,472 10.2 -19.7°
Reaches altitude 10° 13:16:51 10° 9° (N) 1,591 9.1 -19.4°
Maximum altitude 13:20:14 69° 286° (WNW) 485 6.2 -18.9°
Drops below altitude 10° 13:23:35 10° 203° (SSW) 1,573 9.0 -18.4°
Sets 13:25:36 0° 201° (SSW) 2,441 10.1 -18.1°
